[[{"header":{"parameterUnit":"m.s-1","parameterCategory":1,"la1":30.2991,"la2":30.254,"lo1":-89.0895,"lo2":-89.0444,"dy":0.0017,"dx":0.0017,"nx":28,"ny":28,"refTime":"2025-08-09T03:00:00:Z","depth":0,"parameterNumber":2,"parameterNumberName":"U-component_of_WINDS"},"data":[0,0,0,0,0,0,0,0,0,0,0,0,0,0,0,0,0,0,0,0,0,0,0,0,0,0,0,0,0,0,0,0,0,0,0,0,0,0,0,0,0,0,0,0,0,0,0,0,0,0,0,0,0,0,0,0,0,0,-3.9611,-3.9613,0,-3.979,-3.9792,-3.9795,-3.9774,-3.9771,-3.9768,-3.9765,-3.995,-3.9958,-3.9965,0,0,0,0,0,0,0,0,0,0,0,0,0,-3.925,-3.9256,-3.9611,-3.9613,-3.9615,-3.979,-3.9793,-3.9795,-3.9774,-3.9771,-3.9767,-3.9764,-3.9948,-3.9957,-3.9966,0,0,0,0,0,0,0,0,0,0,0,0,0,-3.9416,-3.9259,-3.961,-3.9626,-3.9629,-3.979,-3.9793,-3.9796,-3.9775,-3.9771,-3.9766,-3.9762,-3.9945,-3.9956,-3.9967,-4.0124,0,0,-4.0002,-4.0007,0,0,0,0,0,0,0,0,-3.9406,-3.9429,-3.9621,-3.9625,-3.9629,-3.9755,-3.9733,-3.9906,-3.9776,-3.972,-3.9765,-3.976,-3.9889,-3.9905,-3.9948,-4.0133,-4.0141,-4.0003,-4.001,-4.0015,-4.0018,0,0,0,0,0,0,0,-3.9395,-3.9421,-3.9682,-3.9624,-3.9629,-3.9624,-3.9643,-3.9766,-3.9826,-3.9724,-3.9723,-3.9745,-3.989,-3.9937,-3.9952,-4.0144,-4.0003,-4.0013,-4.002,-4.0024,-4.0465,-4.0469,0,0,0,0,0,0,-3.9379,-3.9412,-3.9676,-3.9687,-3.9505,-3.9634,-3.9655,-3.9719,-3.9825,-3.9837,-3.9748,-3.9743,-3.992,-3.9939,-3.9959,-4.0149,-4.0015,-4.0026,-4.0032,-4.046,-4.0466,-4.0471,0,0,0,0,0,0,-3.9372,-3.9403,-3.9669,-3.9549,-3.9583,-3.9645,-3.9717,-3.9725,-3.9772,-3.9843,-3.9854,-3.9785,-3.9917,-3.9942,-4.0083,-4.0155,-4.0031,-4.0041,-4.0454,-4.0462,-4.0468,-4.0531,0,0,0,0,0,0,-3.9361,-3.9401,-3.9461,-3.9551,-3.9589,-3.9791,-3.9721,-3.9732,-3.9791,-3.9786,-3.988,-3.9892,-3.9916,-4.0066,-4.0094,-4.0168,-4.005,-4.0448,-4.0457,-4.0466,-4.0522,-4.0539,-4.0553,0,0,0,0,0,-3.9349,-3.9472,-3.9464,-3.9496,-3.9666,-3.9795,-3.9817,-3.9841,-3.9797,-3.9858,-3.9904,-3.9889,-4.0142,-4.008,-4.0112,-4.0191,-4.0444,-4.0455,-4.0465,-4.0516,-4.0536,-4.0553,0,0,0,0,0,0,-3.9391,-3.9484,-3.9477,-3.9633,-3.9706,-3.9791,-3.9869,-3.9862,-3.995,-3.9942,-3.9968,-3.999,-4.0131,-4.0175,-4.0104,-4.0347,-4.0287,-4.0305,-4.0314,-4.0334,-4.0349,-4.0336,-4.006,0,0,0,0,0,-3.9418,-3.9514,-3.9591,-3.9721,-3.9758,-3.9807,-3.9864,-3.9877,-3.9954,-3.9985,-4.004,-4.0116,-4.0212,-4.0275,-4.0368,-4.0528,-4.0548,-4.0598,-4.0613,-4.0625,-4.0641,-4.0728,-4.075,-4.0507,-4.0507,-4.0506,0,0,-3.9476,-3.9539,-3.9598,-3.9731,-3.9789,-3.9888,-3.9834,-3.9941,-4.0015,-4.0001,-4.0137,-4.018,-4.0266,-4.0416,-4.0485,-4.0457,-4.0712,-4.0639,-4.0649,-4.0658,-4.0741,-4.0764,-4.0785,-4.0514,-4.0513,-4.0512,0,0,-3.9632,-3.9689,-3.9804,-3.9862,-3.995,-3.9982,-4.0009,-4.0095,-4.0123,-4.0259,-4.025,-4.0338,-4.0504,-4.0565,-4.0618,-4.0794,-4.0783,-4.0823,-4.0905,-4.0989,-4.1008,-4.1026,-4.1088,-4.111,-4.0838,-4.0838,-4.0839,0,-3.9693,-3.9842,-3.9864,-3.9972,-4.003,-4.0021,-4.0136,-4.0192,-4.0307,-4.0347,-4.0313,-4.052,-4.0577,-4.0741,-4.0784,-4.0827,-4.0859,-4.0814,-4.1004,-4.1021,-4.1038,-4.1098,-4.1121,-4.0843,-4.0842,-4.0842,-4.0841,0,-3.9912,-4.0015,-4.0097,-4.0206,-4.0274,-4.0385,-4.0424,-4.0489,-4.0495,-4.053,-4.0668,-4.0736,-4.0841,-4.0881,-4.0888,-4.1046,-4.1025,-4.0998,-4.0937,-4.1065,-4.1122,-4.1145,-4.0849,-4.0847,-4.0846,-4.0845,0,0,-4.0102,-4.022,-4.025,-4.0298,-4.0393,-4.0474,-4.0584,-4.0686,-4.0742,-4.082,-4.0913,-4.1053,-4.1027,-4.1087,-4.11,-4.1174,-4.1309,-4.1137,-4.1139,-4.1167,-4.1486,-4.1507,-4.1533,-4.1301,-4.1306,-4.1309,-4.1479,0,-4.0268,-4.0463,-4.0484,-4.0658,-4.0753,-4.0744,-4.084,-4.0909,-4.0944,-4.1029,-4.1067,-4.1166,-4.1124,-4.116,-4.1233,-4.1277,-4.1373,-4.1265,-4.1388,-4.1393,-4.1368,-4.1563,-4.1586,-4.1743,-4.1501,-4.1505,-4.1508,0,-4.0488,-4.0571,-4.0754,-4.0834,-4.0874,-4.0961,-4.1055,-4.1137,-4.1214,-4.1234,-4.13,-4.1303,-4.1416,-4.135,-4.1507,-4.1433,-4.1484,-4.1513,-4.152,-4.1533,-4.1458,-4.1582,-4.1793,-4.1817,-4.1543,-4.154,-4.1538,0,-4.0608,-4.0765,-4.0895,-4.0937,-4.1034,-4.1094,-4.1137,-4.121,-4.1269,-4.1352,-4.1391,-4.1486,-4.1538,-4.1611,-4.164,-4.1589,-4.1795,-4.1731,-4.1814,-4.1814,-4.1859,-4.1856,-4.2082,-4.1892,-4.1891,-4.1891,-4.189,0,-4.0791,-4.0903,-4.095,-4.103,-4.1155,-4.1178,-4.1301,-4.1342,-4.1406,-4.1493,-4.1491,-4.1573,-4.1605,-4.1693,-4.1716,-4.1841,-4.1865,-4.1884,-4.1889,-4.1885,-4.1882,-4.192,-4.191,-4.1897,-4.1896,-4.1894,-4.1893,0,-4.0947,-4.0983,-4.1123,-4.1202,-4.1225,-4.1313,-4.1381,-4.1458,-4.149,-4.1601,-4.1628,-4.168,-4.1782,-4.1817,-4.1942,-4.1957,-4.2103,-4.2098,-4.2077,-4.2078,-4.2159,-4.2151,-4.2418,-4.2454,-4.2239,-4.2241,-4.2243,0,-4.1062,-4.1148,-4.1235,-4.1293,-4.1338,-4.1432,-4.1492,-4.1517,-4.158,-4.1672,-4.1738,-4.1839,-4.1922,-4.2085,-4.2134,-4.2229,-4.2226,-4.2313,-4.2241,-4.2233,-4.2228,-4.2223,-4.2231,-4.2327,-4.2329,-4.2331,-4.2333,0,-4.1262,-4.1274,-4.1361,-4.1454,-4.1525,-4.1599,-4.1671,-4.1719,-4.1755,-4.1825,-4.1929,-4.1993,-4.2118,-4.2219,-4.2315,-4.2359,-4.2353,-4.2355,-4.2379,-4.2376,-4.236,-4.237,-4.2114,-4.2349,-4.2347,-4.2346,-4.2345,-4.2345,-4.1401,-4.1476,-4.1549,-4.1645,-4.1701,-4.1768,-4.1844,-4.1885,-4.1972,-4.2076,-4.2085,-4.2197,-4.227,-4.2398,-4.2447,-4.2534,-4.251,-4.2546,-4.2555,-4.2563,-4.2569,-4.2345,-4.2552,-4.2552,-4.2551,-4.2551,-4.2551,0,-4.1601,-4.1646,-4.1734,-4.1834,-4.1909,-4.1894,-4.1973,-4.2037,-4.2135,-4.2203,-4.2283,-4.2402,-4.2499,-4.2554,-4.2651,-4.271,-4.2709,-4.2735,-4.2731,-4.2741,-4.2585,-4.2555,-4.2734,-4.2734,-4.2734,-4.2734,-4.2733,-4.2733,-4.1714,-4.184,-4.1861,-4.2015,-4.206,-4.2169,-4.2214,-4.2276,-4.233,-4.2462,-4.2542,-4.2577,-4.264,-4.2741,-4.2828,-4.2842,-4.2878,-4.2906,-4.2917,-4.2771,-4.2752,-4.2734,-4.2706,-4.2913,-4.2914,-4.3066,-4.3067,-4.3068]},{"header":{"parameterUnit":"m.s-1","parameterCategory":1,"la1":30.2991,"la2":30.254,"lo1":-89.0895,"lo2":-89.0444,"dy":0.0017,"dx":0.0017,"nx":28,"ny":28,"refTime":"2025-08-09T03:00:00:Z","depth":0,"parameterNumber":3,"parameterNumberName":"V-component_of_WINDS"},"data":[0,0,0,0,0,0,0,0,0,0,0,0,0,0,0,0,0,0,0,0,0,0,0,0,0,0,0,0,0,0,0,0,0,0,0,0,0,0,0,0,0,0,0,0,0,0,0,0,0,0,0,0,0,0,0,0,0,0,-1.1257,-1.1259,0,-1.1457,-1.146,-1.1462,-1.1554,-1.1554,-1.1554,-1.1554,-1.1759,-1.1764,-1.177,0,0,0,0,0,0,0,0,0,0,0,0,0,-1.0952,-1.0957,-1.1257,-1.1259,-1.1262,-1.1457,-1.146,-1.1463,-1.1554,-1.1554,-1.1554,-1.1553,-1.1757,-1.1764,-1.177,0,0,0,0,0,0,0,0,0,0,0,0,0,-1.1111,-1.0959,-1.1257,-1.1331,-1.134,-1.1457,-1.146,-1.1463,-1.1554,-1.1554,-1.1554,-1.1553,-1.1755,-1.1763,-1.1771,-1.1829,0,0,-1.1797,-1.1801,0,0,0,0,0,0,0,0,-1.1102,-1.1122,-1.1318,-1.1326,-1.1336,-1.148,-1.1428,-1.1586,-1.1554,-1.1473,-1.1553,-1.1553,-1.1666,-1.1682,-1.172,-1.1839,-1.1847,-1.1798,-1.1803,-1.1807,-1.1809,0,0,0,0,0,0,0,-1.1091,-1.1114,-1.1336,-1.132,-1.1332,-1.1354,-1.1376,-1.1458,-1.1569,-1.148,-1.1487,-1.1509,-1.1671,-1.1712,-1.1726,-1.1851,-1.1798,-1.1805,-1.181,-1.1814,-1.2024,-1.2024,0,0,0,0,0,0,-1.1068,-1.1104,-1.133,-1.1342,-1.1216,-1.136,-1.1385,-1.1434,-1.1568,-1.1588,-1.1509,-1.1513,-1.1698,-1.1716,-1.1733,-1.1809,-1.1807,-1.1815,-1.1819,-1.2023,-1.2024,-1.2025,0,0,0,0,0,0,-1.1061,-1.1087,-1.1322,-1.1225,-1.1257,-1.1365,-1.142,-1.1439,-1.1479,-1.159,-1.1611,-1.1531,-1.1698,-1.1722,-1.1804,-1.1817,-1.1818,-1.1826,-1.2023,-1.2024,-1.2024,-1.1961,0,0,0,0,0,0,-1.1052,-1.1084,-1.1108,-1.1225,-1.1262,-1.139,-1.1421,-1.1443,-1.1494,-1.15,-1.1616,-1.1635,-1.17,-1.1791,-1.1812,-1.1829,-1.1833,-1.2022,-1.2023,-1.2024,-1.1962,-1.1959,-1.1957,0,0,0,0,0,-1.1041,-1.1082,-1.1109,-1.1135,-1.1294,-1.139,-1.1411,-1.1485,-1.1494,-1.1519,-1.1589,-1.1631,-1.1812,-1.1799,-1.1824,-1.1843,-1.2022,-1.2023,-1.2024,-1.1963,-1.196,-1.1957,0,0,0,0,0,0,-1.0965,-1.1099,-1.113,-1.1211,-1.1288,-1.1406,-1.1439,-1.1479,-1.1556,-1.1559,-1.1647,-1.1673,-1.1747,-1.1803,-1.1786,-1.1905,-1.192,-1.1927,-1.1866,-1.1863,-1.186,-1.1846,-1.184,0,0,0,0,0,-1.0957,-1.1024,-1.1138,-1.1199,-1.1236,-1.133,-1.1375,-1.1425,-1.1509,-1.1542,-1.162,-1.1699,-1.1774,-1.1821,-1.1897,-1.197,-1.1996,-1.1995,-1.1992,-1.1989,-1.1994,-1.2036,-1.2036,-1.2028,-1.2028,-1.2028,0,0,-1.0943,-1.1025,-1.1062,-1.1186,-1.1252,-1.1319,-1.1357,-1.1428,-1.1478,-1.1553,-1.1636,-1.1694,-1.1789,-1.1867,-1.1905,-1.1916,-1.2002,-1.1991,-1.1988,-1.1995,-1.2037,-1.2037,-1.2038,-1.2029,-1.2029,-1.2029,0,0,-1.0951,-1.102,-1.1078,-1.1142,-1.1241,-1.1303,-1.1316,-1.1427,-1.1468,-1.1552,-1.161,-1.167,-1.1798,-1.1862,-1.1911,-1.194,-1.1981,-1.1962,-1.1948,-1.1987,-1.1988,-1.1989,-1.1999,-1.2001,-1.1966,-1.1966,-1.1966,0,-1.0921,-1.1025,-1.1102,-1.1168,-1.122,-1.129,-1.1348,-1.1407,-1.1525,-1.1559,-1.1569,-1.1728,-1.1797,-1.189,-1.1896,-1.1934,-1.1952,-1.195,-1.1982,-1.1984,-1.1986,-1.1996,-1.1999,-1.1963,-1.1963,-1.1963,-1.1964,0,-1.0983,-1.1054,-1.1088,-1.1199,-1.1255,-1.1317,-1.1402,-1.1449,-1.1493,-1.1553,-1.1636,-1.172,-1.1813,-1.1838,-1.1882,-1.1937,-1.194,-1.1965,-1.1983,-1.1982,-1.1993,-1.1998,-1.1958,-1.196,-1.196,-1.1961,0,0,-1.0952,-1.1103,-1.1114,-1.1165,-1.1277,-1.1333,-1.1396,-1.1486,-1.1524,-1.1602,-1.1658,-1.1762,-1.1784,-1.184,-1.1892,-1.1926,-1.1942,-1.1947,-1.195,-1.1943,-1.2006,-1.1987,-1.1991,-1.1969,-1.197,-1.1971,-1.1998,0,-1.0976,-1.1095,-1.1164,-1.1253,-1.1319,-1.1384,-1.1439,-1.1513,-1.157,-1.1633,-1.1696,-1.1769,-1.1793,-1.1827,-1.1864,-1.1932,-1.1956,-1.1931,-1.2021,-1.2023,-1.1996,-1.1997,-1.1978,-1.2,-1.2003,-1.2004,-1.2004,0,-1.1022,-1.1097,-1.1192,-1.1295,-1.1325,-1.1374,-1.146,-1.152,-1.1605,-1.1644,-1.1704,-1.1755,-1.1824,-1.1834,-1.1929,-1.1911,-1.1951,-1.1989,-1.1992,-1.2004,-1.2015,-1.2009,-1.2009,-1.2012,-1.2012,-1.2012,-1.2011,0,-1.0989,-1.1114,-1.1188,-1.1229,-1.135,-1.1383,-1.1435,-1.1519,-1.1568,-1.1643,-1.1675,-1.1757,-1.1802,-1.1864,-1.1935,-1.1936,-1.2023,-1.204,-1.2057,-1.2055,-1.2074,-1.2072,-1.208,-1.2098,-1.2098,-1.2098,-1.2097,0,-1.101,-1.1065,-1.1174,-1.1219,-1.1283,-1.1361,-1.1422,-1.1479,-1.1552,-1.1609,-1.167,-1.1721,-1.1812,-1.1874,-1.193,-1.2,-1.202,-1.2053,-1.2067,-1.2048,-1.2044,-1.2077,-1.2077,-1.2099,-1.2098,-1.2098,-1.2098,0,-1.0985,-1.1061,-1.1144,-1.1252,-1.128,-1.1322,-1.1414,-1.1459,-1.1518,-1.1588,-1.1609,-1.1702,-1.1778,-1.1854,-1.1958,-1.1995,-1.2063,-1.2082,-1.2035,-1.2043,-1.2056,-1.2053,-1.2086,-1.2094,-1.2105,-1.2105,-1.2105,0,-1.0994,-1.1038,-1.1149,-1.1191,-1.1242,-1.1309,-1.1358,-1.1435,-1.1484,-1.1582,-1.1615,-1.1695,-1.1764,-1.1883,-1.1959,-1.2037,-1.2059,-1.2065,-1.2072,-1.205,-1.2059,-1.2056,-1.206,-1.2063,-1.2062,-1.2062,-1.2062,0,-1.1001,-1.1035,-1.1105,-1.1185,-1.1242,-1.131,-1.138,-1.1411,-1.1501,-1.1552,-1.1631,-1.1683,-1.1787,-1.1866,-1.1953,-1.2006,-1.2049,-1.2058,-1.2067,-1.2048,-1.2018,-1.2034,-1.2028,-1.2058,-1.2058,-1.2059,-1.2059,-1.2059,-1.0995,-1.1036,-1.112,-1.1194,-1.1254,-1.1317,-1.1365,-1.1428,-1.1495,-1.1585,-1.1626,-1.1704,-1.1785,-1.1906,-1.1958,-1.202,-1.2031,-1.2043,-1.2046,-1.2048,-1.2044,-1.2007,-1.2036,-1.2036,-1.2036,-1.2037,-1.2037,0,-1.1005,-1.1061,-1.1128,-1.1223,-1.1281,-1.1314,-1.1392,-1.1438,-1.1506,-1.1578,-1.1643,-1.1732,-1.1808,-1.1888,-1.1969,-1.2003,-1.2024,-1.2021,-1.202,-1.2031,-1.2029,-1.2014,-1.2003,-1.2003,-1.2003,-1.2002,-1.2002,-1.2002,-1.1017,-1.1089,-1.1132,-1.1233,-1.129,-1.1367,-1.1408,-1.1466,-1.1524,-1.162,-1.1683,-1.1734,-1.1809,-1.1895,-1.1965,-1.1987,-1.2014,-1.2006,-1.2033,-1.2029,-1.2032,-1.2034,-1.202,-1.2011,-1.2011,-1.203,-1.203,-1.203]}]]